Weather History for Aqaba, Jordan

Change the Weather History Date:

Friday, February 8, 2013

  Actual Average (LLET) Record (LLET)
Temperature  
Mean Temperature 66 °F -  
Max Temperature 77 °F 69 °F 82 °F (2009)
Min Temperature 54 °F 51 °F 46 °F (1997)
Growing Degree Days 16 (Base 50)    
Moisture  
Dew Point 47 °F    
Average Humidity 52    
Maximum Humidity 72    
Minimum Humidity 24    
Precipitation  
Precipitation 0.00 in - - ()
Sea Level Pressure  
Sea Level Pressure 29.91 in    
Wind  
Wind Speed 5 mph ()    
Max Wind Speed 9 mph    
Max Gust Speed -    
Visibility 3.8 miles    
Events      
Averages and records for this station are not official NWS values.
T = Trace of Precipitation, MM = Missing Value Source: Averaged Metar Reports

Daily Weather History Graph

Daily Weather History Graph

Search for Another Location

Airport:

Trip Planner

Search our weather history database for the weather conditions in past years. The results will help you decide how hot, cold, wet, or windy it might be!

Date:

Astronomy

Feb. 08, 2013 Rise Set
Actual Time 7:25 AM EEST 6:23 PM EEST
Civil Twilight 7:00 AM EEST 6:48 PM EEST
Nautical Twilight 6:32 AM EEST 7:16 PM EEST
Astronomical Twilight 6:04 AM EEST 7:44 PM EEST
Moon 5:32 AM EEST (2/8) 4:36 PM EEST (2/8)
Length of Visible Light 11h 47m
Length of Day
10h 58m
Waning Crescent, 5% of the Moon is Illuminated
Feb 8
Waning Crescent
Feb 10
New
Feb 17
First Quarter
Feb 25
Full
Mar 5
Last Quarter

Hourly Weather History & Observations

Time (EEST) Temp. Dew Point Humidity Pressure Visibility Wind Dir Wind Speed Gust Speed Precip Events Conditions
12:00 AM 57 °F 48 °F 64% 29.99 in 6 mi North 9.2 mph - -  
12:00 AM 57.2 °F 48.2 °F 72% 29.98 in - North 9.2 mph - N/A   Clear
3:00 AM 55.4 °F 44.6 °F 67% 29.95 in - NE 4.6 mph - N/A   Clear
6:00 AM 55 °F 45 °F 60% 29.91 in 6 mi North 4.6 mph - -  
6:00 AM 55.4 °F 44.6 °F 67% 29.92 in - North 4.6 mph - N/A   Clear
7:00 AM 53.6 °F 44.6 °F 72% 29.92 in - North 4.6 mph - N/A   Clear
8:00 AM 53.6 °F 44.6 °F 72% 29.92 in - North 4.6 mph - N/A   Clear
9:00 AM 57 °F 46 °F 58% 29.91 in 4 mi North 4.6 mph - -   Haze
9:00 AM 57.2 °F 46.4 °F 67% 29.92 in 3.7 mi North 4.6 mph - N/A   Unknown
10:00 AM 57.2 °F 48.2 °F 72% 29.92 in 3.7 mi North 6.9 mph - N/A   Unknown
11:00 AM 59.0 °F 48.2 °F 67% 29.92 in 3.7 mi North 6.9 mph - N/A   Unknown
12:00 PM 66 °F 47 °F 39% 29.93 in 3 mi North 4.6 mph - -   Haze
12:00 PM 66.2 °F 46.4 °F 49% 29.92 in 3.1 mi North 4.6 mph - N/A   Haze
1:00 PM 68.0 °F 46.4 °F 46% 29.92 in 3.1 mi NNW 6.9 mph - N/A   Haze
2:00 PM 71.6 °F 44.6 °F 38% 29.86 in 3.1 mi NNW 4.6 mph - N/A   Haze
3:00 PM 74 °F 48 °F 28% 29.87 in 3 mi NNW 4.6 mph - -   Haze
3:00 PM 73.4 °F 48.2 °F 41% 29.86 in 3.1 mi NNW 4.6 mph - N/A   Haze
4:00 PM 75.2 °F 46.4 °F 36% 29.86 in 3.1 mi Calm Calm - N/A   Haze
5:00 PM 73.4 °F 48.2 °F 41% 29.86 in 3.1 mi South 6.9 mph - N/A   Haze
6:00 PM 74 °F 45 °F 24% 29.86 in 3 mi SW 6.9 mph - -   Haze
6:00 PM 75.2 °F 44.6 °F 34% 29.86 in 3.1 mi SW 6.9 mph - N/A   Haze
7:00 PM 69.8 °F 46.4 °F 43% 29.86 in 4.3 mi SE 4.6 mph - N/A   Unknown
8:00 PM 68.0 °F 48.2 °F 49% 29.89 in 5.0 mi SE 4.6 mph - N/A   Unknown
9:00 PM 66 °F 48 °F 41% 29.91 in 6 mi SE 6.9 mph - -  
9:00 PM 66.2 °F 48.2 °F 52% 29.89 in - SE 6.9 mph - N/A   Clear
10:00 PM 64.4 °F 46.4 °F 52% 29.92 in - Calm Calm - N/A   Clear
11:00 PM 62.6 °F 46.4 °F 55% 30.09 in - Calm Calm - N/A   Clear